Tracking 35275 objects as of 9-Sep-2026
HD Live streaming from Space Station
objects crossing your sky now

OBJECT M

Track OBJECT M now!
10-day predictions


NORAD ID: 63993
Int'l Code: 2025-100M
Launch date: May 14, 2025
Source: People's Republic of China (PRC)
Launch site: Jiuquan Satellite Launch Center, China (JSC)
Your satellite tracking list
Your tracking list is empty




NASA's NSSDC Master Catalog

Two Line Element Set (TLE):
1 63993U 25100M   26251.54694298  .00021421  00000-0  74893-3 0  9995
2 63993  97.3604 327.7087 0006369  38.7991 321.3706 15.29545150 73634
Source of the keplerian elements: AFSPC